Home > Weather > Houston > Past weeks

Flag for USA Past Weather in Houston, Texas, USA — Yesterday and Last 2 Weeks

Now
68 °F

Passing clouds.


Feels Like: 68 °F
Forecast: 75 / 87 °F
Wind: 3 mph from South

Location: Houston Hobby Airport

Current Time: May 28, 2016 at 5:08:09 AM

Latest Report: May 28, 2016 at 3:53 AM


Visibility: 10 mi

Pressure: 29.87 "Hg

Humidity: 93%

Dew Point: 66 °F

Location of HoustonLocation

Past Weather in Houston — Graph

°F

Houston Temperature Yesterday

Maximum temperature yesterday: 85 °F (at 10:53 AM)
Minimum temperature yesterday: 66 °F (at 6:53 PM)
Average temperature yesterday: 76 °F

High & Low Weather Summary for the Past Weeks

 TemperatureHumidityPressure
High89 °F (May 14, 2:53 PM)100% (May 14, 4:53 AM)30.15 "Hg (May 14, 4:53 AM)
Low66 °F (May 19, 3:53 PM)52% (May 14, 1:53 PM)29.72 "Hg (May 27, 1:53 PM)
Average77 °F82%29.96 "Hg
* Reported May 13 2:53 AM — May 28 2:53 AM, Houston, Weather by CustomWeather, © 2016

Note: Actual official high and low records may vary slightly from our data, if they occured in-between our weather recording intervals... More about our weather records

Advertising

Houston Weather History for the Previous 24 Hours

Scroll right to see more
 ConditionsComfort  
Time TempWeatherWind HumidityBarometerVisibility
2:53 AM
Sat, May 28
68 °FPassing clouds.3 mph93%29.87 "Hg10 mi
1:53 AM68 °FOvercast.3 mph93%29.87 "Hg10 mi
12:53 AM67 °FOvercast.No wind97%29.87 "Hg10 mi
11:53 PM
Fri, May 27
69 °FMostly cloudy.No wind87%29.83 "Hg10 mi
10:53 PM68 °FThunderstorms. Passing clouds.3 mph87%29.80 "Hg10 mi
9:53 PM71 °FPassing clouds.9 mph73%29.82 "Hg10 mi
8:53 PM68 °FThunderstorms. More clouds than sun.15 mph87%29.77 "Hg10 mi
7:53 PM67 °FStrong thunderstorms. Fog.14 mph93%29.83 "Hg2 mi
6:53 PM66 °FThunderstorms. Fog.7 mph96%29.80 "Hg3 mi
5:53 PM68 °FStrong thunderstorms. Fog.7 mph96%29.81 "Hg1 mi
5:00 PM70 °FThunderstorms. Cloudy.17 mph83%29.81 "Hg10 mi
3:53 PM80 °FLight rain. Mostly cloudy.13 mph87%29.76 "Hg10 mi
2:53 PM83 °FLight rain. Cloudy.15 mph74%29.75 "Hg10 mi
1:53 PM85 °FMore clouds than sun.16 mph72%29.72 "Hg10 mi
1:00 PM84 °FMostly cloudy.18 mph70%29.74 "Hg10 mi
11:53 AM84 °FMostly cloudy.21 mph74%29.78 "Hg10 mi
11:04 AM84 °FPartly sunny.18 mph74%29.77 "Hg10 mi
10:53 AM85 °FScattered clouds.20 mph72%29.78 "Hg10 mi
9:53 AM82 °FMostly cloudy.10 mph82%29.80 "Hg10 mi
8:53 AM80 °FPartly sunny.12 mph85%29.80 "Hg10 mi
7:53 AM74 °FOvercast.7 mph88%29.82 "Hg10 mi
6:53 AM72 °FMostly cloudy.5 mph87%29.83 "Hg10 mi
5:53 AM72 °FLight rain. Mostly cloudy.17 mph87%29.82 "Hg9 mi
Weather by CustomWeather, © 2016

See weather overviewHow to use our weather pages